Tracking 18980 objects as of 22-Feb-2018
HD Live streaming from Space Station
objects crossing your sky now

FENGYUN 1C DEB

Track FENGYUN 1C DEB now!
10-day predictions


NORAD ID: 31959
Int'l Code: 1999-025CNL
Perigee: 807.4 km
Apogee: 865.8 km
Inclination: 98.6 °
Period: 101.5 minutes
Semi major axis: 7207 km
RCS: 0.0084 m2 (small)
Launch date: May 10, 1999
Source: People's Republic of China (PRC)
Launch site: Taiyaun Space Center, China (TSC)

Note: This is SATELLITE DEBRIS
aabbcc
Your satellite tracking list
Your tracking list is empty




NASA's NSSDC Master Catalog

Two Line Element Set (TLE):
1 31959U 99025CNL 18051.92990797  .00000927  00000-0  46302-3 0  9995
2 31959  98.6370 308.5389 0040465 203.7413 156.1897 14.18789309560511
Source of the keplerian elements: AFSPC